Terug naar catalogus

COSMOS 2324

GLONASS

ActiefNavigatieMEO
NORAD 23735·PAYLOAD·🇷🇺 Russia

Gelanceerd Dec 14, 1995 vanaf Baikonur Cosmodrome

Loading…

Volgende Passages (komende 24 uur)

TLE

VersSource: Space-Track

Epoch: Sep 12, 2026, 12:11 UTC

1 23735U 95068B   26255.50802687  .00000008  00000-0  00000-0 0  9992
2 23735  65.4725 199.9043 0003502 102.5896 257.4302  2.13102746239325

Volg COSMOS 2324 in realtime met AllMySat

Download on the App Store